• In Belgien
  • Länderverzeichnis
  • Für 7 Tage
  • Wassertemperatur
  • Satellitenkarten
  • Wetterkarte
  • Widgets
  • user-avatar
    Anmelden

    Stündliche Wetter Rogale

    Heute, 18 Juni, Montag

    Zeit Temperatur Niederschläge Wind Luftdruck Luftfeuchtigkeit
    00:00 +19°C° 0 mm 1 m/S 749 mmHg 81%
    01:00 +19°C° 0 mm 1 m/S 748 mmHg 82%
    02:00 +19°C° 0 mm 1 m/S 748 mmHg 85%
    03:00 +18°C° 0 mm 1 m/S 748 mmHg 87%
    04:00 +16°C° 0 mm 2 m/S 749 mmHg 89%
    05:00 +18°C° 0 mm 2 m/S 749 mmHg 86%
    06:00 +19°C° 0 mm 2 m/S 749 mmHg 82%
    07:00 +21°C° 0 mm 2 m/S 749 mmHg 79%
    08:00 +22°C° 0,4 mm 3 m/S 749 mmHg 75%
    09:00 +24°C° 0,4 mm 3 m/S 750 mmHg 72%
    10:00 +24°C° 0,4 mm 3 m/S 750 mmHg 68%
    11:00 +25°C° 0,4 mm 3 m/S 750 mmHg 67%
    12:00 +25°C° 0,4 mm 4 m/S 750 mmHg 65%
    13:00 +25°C° 0,4 mm 4 m/S 750 mmHg 64%
    14:00 +23°C° 0,1 mm 4 m/S 750 mmHg 64%
    15:00 +23°C° 0,1 mm 4 m/S 750 mmHg 65%
    16:00 +22°C° 0,1 mm 4 m/S 750 mmHg 65%
    17:00 +21°C° 0 mm 4 m/S 750 mmHg 69%
    18:00 +19°C° 0 mm 3 m/S 750 mmHg 74%
    19:00 +18°C° 0 mm 3 m/S 750 mmHg 78%
    20:00 +16°C° 0 mm 2 m/S 750 mmHg 80%
    21:00 +15°C° 0 mm 2 m/S 751 mmHg 82%
    22:00 +13°C° 0 mm 1 m/S 751 mmHg 85%
    23:00 +13°C° 0 mm 1 m/S 751 mmHg 84%

    Morgen, 19 Juni, Dienstag

    Zeit Temperatur Niederschläge Wind Luftdruck Luftfeuchtigkeit
    00:00 +13°C° 0 mm 1 m/S 751 mmHg 82%
    01:00 +13°C° 0 mm 1 m/S 751 mmHg 81%
    02:00 +13°C° 0 mm 1 m/S 751 mmHg 80%
    03:00 +13°C° 0 mm 1 m/S 751 mmHg 80%
    04:00 +13°C° 0 mm 1 m/S 751 mmHg 79%
    05:00 +15°C° 0 mm 2 m/S 751 mmHg 75%
    06:00 +17°C° 0 mm 2 m/S 751 mmHg 72%
    07:00 +19°C° 0 mm 3 m/S 751 mmHg 68%
    08:00 +20°C° 0 mm 3 m/S 751 mmHg 66%
    09:00 +21°C° 0 mm 4 m/S 751 mmHg 64%
    10:00 +23°C° 0 mm 4 m/S 751 mmHg 62%
    11:00 +23°C° 0,1 mm 4 m/S 751 mmHg 64%
    12:00 +23°C° 0,1 mm 4 m/S 751 mmHg 66%
    13:00 +23°C° 0,1 mm 4 m/S 751 mmHg 68%
    14:00 +22°C° 0,1 mm 4 m/S 751 mmHg 71%
    15:00 +22°C° 0,1 mm 4 m/S 751 mmHg 73%
    16:00 +21°C° 0,1 mm 4 m/S 751 mmHg 75%
    17:00 +20°C° 0 mm 4 m/S 751 mmHg 78%
    18:00 +20°C° 0 mm 3 m/S 751 mmHg 81%
    19:00 +19°C° 0 mm 3 m/S 751 mmHg 84%
    20:00 +18°C° 0 mm 2 m/S 751 mmHg 87%
    21:00 +16°C° 0 mm 2 m/S 751 mmHg 90%
    22:00 +15°C° 0 mm 2 m/S 751 mmHg 93%
    23:00 +15°C° 0 mm 2 m/S 751 mmHg 93%

    übermorgen, 20 Juni, Mittwoch

    Zeit Temperatur Niederschläge Wind Luftdruck Luftfeuchtigkeit
    00:00 +14°C° 0 mm 2 m/S 752 mmHg 94%
    01:00 +13°C° 0 mm 3 m/S 752 mmHg 94%
    02:00 +13°C° 0 mm 3 m/S 752 mmHg 95%
    03:00 +13°C° 0 mm 3 m/S 752 mmHg 96%
    04:00 +13°C° 0 mm 3 m/S 752 mmHg 96%
    05:00 +14°C° 0 mm 3 m/S 752 mmHg 88%
    06:00 +15°C° 0 mm 4 m/S 753 mmHg 80%
    07:00 +18°C° 0 mm 4 m/S 753 mmHg 71%
    08:00 +18°C° 0 mm 4 m/S 753 mmHg 68%
    09:00 +19°C° 0 mm 4 m/S 753 mmHg 64%
    10:00 +20°C° 0 mm 4 m/S 753 mmHg 60%
    11:00 +21°C° 0 mm 4 m/S 753 mmHg 58%
    12:00 +21°C° 0 mm 4 m/S 753 mmHg 57%
    13:00 +22°C° 0 mm 4 m/S 753 mmHg 56%
    14:00 +22°C° 0 mm 4 m/S 753 mmHg 57%
    15:00 +22°C° 0 mm 4 m/S 753 mmHg 58%
    16:00 +22°C° 0 mm 3 m/S 753 mmHg 59%
    17:00 +21°C° 0 mm 3 m/S 752 mmHg 65%
    18:00 +20°C° 0 mm 2 m/S 752 mmHg 71%
    19:00 +20°C° 0 mm 1 m/S 752 mmHg 77%
    20:00 +18°C° 0 mm 1 m/S 752 mmHg 80%
    21:00 +16°C° 0 mm 1 m/S 752 mmHg 83%
    22:00 +15°C° 0 mm 1 m/S 752 mmHg 86%
    23:00 +14°C° 0 mm 2 m/S 752 mmHg 87%

    21 Juni, Donnerstag

    Zeit Temperatur Niederschläge Wind Luftdruck Luftfeuchtigkeit
    00:00 +14°C° 0 mm 2 m/S 751 mmHg 88%
    01:00 +14°C° 0 mm 2 m/S 751 mmHg 88%
    02:00 +13°C° 0 mm 3 m/S 751 mmHg 87%
    03:00 +13°C° 0 mm 3 m/S 750 mmHg 86%
    04:00 +13°C° 0 mm 3 m/S 750 mmHg 85%
    05:00 +16°C° 0 mm 3 m/S 749 mmHg 79%
    06:00 +18°C° 0 mm 3 m/S 749 mmHg 74%
    07:00 +20°C° 0 mm 4 m/S 749 mmHg 68%
    08:00 +22°C° 0 mm 4 m/S 748 mmHg 64%
    09:00 +23°C° 0 mm 4 m/S 748 mmHg 60%
    10:00 +26°C° 0 mm 5 m/S 747 mmHg 56%
    11:00 +26°C° 0 mm 5 m/S 746 mmHg 56%
    12:00 +27°C° 0 mm 5 m/S 746 mmHg 56%
    13:00 +27°C° 0 mm 5 m/S 745 mmHg 56%
    14:00 +27°C° 0,4 mm 4 m/S 744 mmHg 63%
    15:00 +27°C° 0,4 mm 4 m/S 743 mmHg 69%
    16:00 +26°C° 0,4 mm 4 m/S 742 mmHg 76%
    17:00 +25°C° 1,3 mm 4 m/S 742 mmHg 81%
    18:00 +22°C° 1,3 mm 4 m/S 741 mmHg 85%
    19:00 +21°C° 1,3 mm 4 m/S 741 mmHg 89%
    20:00 +20°C° 1,1 mm 4 m/S 740 mmHg 92%
    21:00 +19°C° 1,1 mm 4 m/S 740 mmHg 94%
    22:00 +18°C° 1,1 mm 4 m/S 740 mmHg 96%
    23:00 +16°C° 0,2 mm 5 m/S 741 mmHg 95%

    22 Juni, Freitag

    Zeit Temperatur Niederschläge Wind Luftdruck Luftfeuchtigkeit
    00:00 +14°C° 0,2 mm 5 m/S 741 mmHg 94%
    01:00 +13°C° 0,2 mm 6 m/S 741 mmHg 92%
    02:00 +12°C° 0 mm 5 m/S 741 mmHg 92%
    03:00 +10°C° 0 mm 5 m/S 742 mmHg 93%
    04:00 +9°C° 0 mm 5 m/S 742 mmHg 93%
    05:00 +10°C° 0 mm 5 m/S 742 mmHg 88%
    06:00 +11°C° 0 mm 6 m/S 743 mmHg 83%
    07:00 +13°C° 0 mm 6 m/S 743 mmHg 77%
    08:00 +14°C° 0 mm 6 m/S 743 mmHg 72%
    09:00 +15°C° 0 mm 6 m/S 744 mmHg 66%
    10:00 +15°C° 0 mm 7 m/S 744 mmHg 60%
    11:00 +16°C° 0,1 mm 7 m/S 744 mmHg 58%
    12:00 +16°C° 0,1 mm 7 m/S 744 mmHg 56%
    13:00 +16°C° 0,1 mm 7 m/S 744 mmHg 53%
    14:00 +16°C° 0,1 mm 6 m/S 744 mmHg 55%
    15:00 +16°C° 0,1 mm 6 m/S 744 mmHg 56%
    16:00 +15°C° 0,1 mm 6 m/S 744 mmHg 57%
    17:00 +15°C° 0,1 mm 5 m/S 744 mmHg 63%
    18:00 +14°C° 0,1 mm 4 m/S 744 mmHg 69%
    19:00 +13°C° 0,1 mm 3 m/S 744 mmHg 75%
    20:00 +12°C° 0 mm 3 m/S 744 mmHg 78%
    21:00 +11°C° 0 mm 3 m/S 745 mmHg 82%
    22:00 +10°C° 0 mm 3 m/S 745 mmHg 85%
    23:00 +9°C° 0 mm 3 m/S 745 mmHg 88%

    23 Juni, Samstag

    Zeit Temperatur Niederschläge Wind Luftdruck Luftfeuchtigkeit
    00:00 +9°C° 0 mm 3 m/S 745 mmHg 91%
    01:00 +8°C° 0 mm 3 m/S 745 mmHg 93%
    02:00 +8°C° 0 mm 3 m/S 745 mmHg 94%
    03:00 +8°C° 0 mm 3 m/S 745 mmHg 94%
    04:00 +8°C° 0 mm 3 m/S 745 mmHg 95%
    05:00 +10°C° 0 mm 3 m/S 745 mmHg 89%
    06:00 +12°C° 0 mm 3 m/S 745 mmHg 83%
    07:00 +13°C° 0 mm 3 m/S 746 mmHg 77%
    08:00 +14°C° 0,2 mm 3 m/S 746 mmHg 72%
    09:00 +17°C° 0,2 mm 4 m/S 745 mmHg 68%
    10:00 +18°C° 0,2 mm 4 m/S 745 mmHg 64%
    11:00 +16°C° 0,5 mm 5 m/S 745 mmHg 67%
    12:00 +16°C° 0,5 mm 5 m/S 745 mmHg 70%
    13:00 +16°C° 0,5 mm 5 m/S 745 mmHg 73%
    14:00 +15°C° 0,5 mm 5 m/S 745 mmHg 77%
    15:00 +15°C° 0,5 mm 5 m/S 746 mmHg 81%
    16:00 +14°C° 0,5 mm 5 m/S 746 mmHg 85%
    17:00 +14°C° 0,4 mm 5 m/S 746 mmHg 88%
    18:00 +13°C° 0,4 mm 4 m/S 746 mmHg 90%
    19:00 +12°C° 0,4 mm 4 m/S 746 mmHg 93%
    20:00 +12°C° 0,1 mm 4 m/S 746 mmHg 95%
    21:00 +11°C° 0,1 mm 3 m/S 747 mmHg 96%
    22:00 +10°C° 0,1 mm 3 m/S 747 mmHg 97%
    23:00 +10°C° 0 mm 3 m/S 747 mmHg 97%
    Mehr zeigen